This demonstration page uses our WeatherBlox Daily Observations layout. Learn more.

Left ArrowRight Arrow

40.92945, -100.16068

Hourly Observations for August 27, 2020

Temp ( °F °C ) Dew Point ( °F °C ) Humidity (%) Winds ( mph kmh ) Pressure ( in mb ) Visibility ( mi km ) Precip ( " mm )
12:15 am 00:15 Clear 79 26.3 60 15.5 51 51 S 12 19 29.73 1007 10 16 N/A
12:35 am 00:35 Partly Cloudy 80 26.4 59 15.1 50 50 SSE 10 17 29.75 1007 10 16 N/A
12:55 am 00:55 Partly Cloudy with Light Rain 78 25.5 61 15.9 55 55 S 14 22 29.75 1007 10 16 N/A
1:15 am 01:15 Partly Cloudy with Light Rain 76 24.6 61 16.1 59 59 SSE 8 13 29.76 1008 10 16 N/A
1:35 am 01:35 Clear 77 25 60 15.8 57 57 S 13 20 29.75 1007 10 16 N/A
1:55 am 01:55 Clear 77 24.9 60 15.5 56 56 S 12 19 29.75 1007 10 16 N/A
2:15 am 02:15 Clear 76 24.4 60 15.5 58 58 S 10 17 29.75 1007 10 16 N/A
2:35 am 02:35 Clear 76 24.6 59 15.1 56 56 S 10 17 29.73 1007 10 16 N/A
2:55 am 02:55 Clear 76 24.3 59 15 56 56 S 12 19 29.73 1007 10 16 N/A
3:15 am 03:15 Clear 75 23.7 59 15 58 58 S 8 13 29.73 1007 10 16 N/A
3:35 am 03:35 Clear 74 23.4 59 14.8 59 59 S 5 7 29.72 1007 10 16 N/A
3:55 am 03:55 Clear 73 22.5 59 15 63 63 SSE 5 7 29.73 1007 10 16 N/A
4:15 am 04:15 Clear 72 22 59 14.8 64 64 S 5 7 29.73 1007 10 16 N/A
4:35 am 04:35 Clear 72 22.2 58 14.6 62 62 SSE 8 13 29.72 1007 10 16 N/A
4:55 am 04:55 Clear 72 22 58 14.5 63 63 SSE 6 9 29.74 1007 10 16 N/A
5:15 am 05:15 Clear 71 21.4 58 14.5 65 65 SSE 7 11 29.74 1007 10 16 N/A
5:35 am 05:35 Clear 69 20.4 58 14.6 69 69 N N/A 29.75 1007 10 16 N/A
5:55 am 05:55 Clear 66 18.7 59 15.2 80 80 SE 5 7 29.76 1008 10 16 N/A
6:15 am 06:15 Clear 66 18.9 58 14.3 75 75 S 5 7 29.76 1008 10 16 N/A
6:35 am 06:35 Clear 67 19.4 58 14.5 73 73 SSE 3 6 29.77 1008 10 16 N/A
6:55 am 06:55 Clear 65 18.3 58 14.7 80 80 N N/A 29.78 1008 10 16 N/A
7:15 am 07:15 Sunny 63 17.1 59 14.8 86 86 SE 3 6 29.79 1009 10 16 N/A
7:35 am 07:35 Sunny 64 17.9 59 15 83 83 N N/A 29.78 1008 10 16 N/A
7:55 am 07:55 Sunny 67 19.7 60 15.5 77 77 SE 3 6 29.77 1008 10 16 N/A
8:15 am 08:15 Sunny 68 20.2 60 15.8 76 76 SSE 6 9 29.77 1008 10 16 N/A
8:35 am 08:35 Sunny 69 20.6 61 16.1 76 76 SSE 5 7 29.77 1008 10 16 N/A
8:55 am 08:55 Sunny 71 21.6 62 16.4 72 72 S 3 6 29.76 1008 10 16 N/A
9:15 am 09:15 Sunny 73 22.9 61 16.2 66 66 S 5 7 29.76 1008 10 16 N/A
9:35 am 09:35 Sunny 75 23.7 61 15.9 62 62 S 6 9 29.75 1007 10 16 N/A
9:55 am 09:55 Sunny 77 24.8 61 16 58 58 S 7 11 29.75 1008 10 16 N/A
10:15 am 10:15 Sunny 78 25.6 61 16.1 56 56 SW 5 7 29.74 1007 10 16 N/A
10:35 am 10:35 Sunny 79 26.1 61 16.2 54 54 S 3 6 29.74 1007 10 16 N/A
10:55 am 10:55 Sunny 80 26.6 61 16.1 53 53 N N/A 29.74 1007 10 16 N/A
11:15 am 11:15 Sunny 82 27.5 62 16.4 51 51 S 3 6 29.73 1007 10 16 N/A
11:35 am 11:35 Sunny 83 28.4 62 16.5 48 48 S 5 7 29.73 1007 10 16 N/A
11:55 am 11:55 Sunny 83 28.4 61 16.3 48 48 SE 5 7 29.73 1007 10 16 N/A
12:15 pm 12:15 Sunny 85 29.6 62 16.6 45 45 S 7 11 29.71 1006 10 16 N/A
12:35 pm 12:35 Sunny 86 29.9 62 16.6 45 45 SE 6 9 29.70 1006 10 16 N/A
12:55 pm 12:55 Sunny 87 30.6 62 16.8 43 43 SE 7 11 29.69 1005 10 16 N/A
1:15 pm 13:15 Sunny 89 31.4 63 17.2 43 43 S 6 9 29.68 1005 10 16 N/A
1:35 pm 13:35 Sunny 89 31.8 62 16.8 41 41 SSE 5 7 29.68 1005 10 16 N/A
1:55 pm 13:55 Sunny 90 32.2 61 16.2 38 38 SSE 9 15 29.67 1005 10 16 N/A
2:15 pm 14:15 Sunny 91 32.5 62 16.9 39 39 SE 9 15 29.67 1005 10 16 N/A
2:35 pm 14:35 Sunny 91 33 64 17.5 40 40 SSE 13 20 29.66 1004 10 16 N/A
2:55 pm 14:55 Sunny 92 33.4 64 18 40 40 SSE 12 19 29.65 1004 10 16 N/A
3:35 pm 15:35 Sunny 94 34.2 62 16.6 35 35 SSE 14 22 29.64 1004 10 16 N/A
3:55 pm 15:55 Sunny 94 34.7 61 16.3 33 33 SSE 15 24 29.62 1003 10 16 N/A
4:15 pm 16:15 Sunny 94 34.4 61 16.2 34 34 SSE 14 22 29.62 1003 10 16 N/A
4:35 pm 16:35 Sunny 94 34.5 62 16.5 34 34 SSE 15 24 29.61 1003 10 16 N/A
4:55 pm 16:55 Sunny 94 34.6 62 16.5 34 34 SSE 14 22 29.60 1003 10 16 N/A
5:15 pm 17:15 Sunny 95 35 59 15.1 30 30 S 16 26 29.59 1002 10 16 N/A
5:35 pm 17:35 Sunny 92 33.4 61 16.3 36 36 SSE 10 17 29.61 1003 10 16 N/A
5:55 pm 17:55 Sunny 91 32.9 61 16.1 36 36 SSE 10 17 29.61 1003 10 16 N/A
6:15 pm 18:15 Sunny 91 32.7 62 16.4 38 38 SSE 9 15 29.61 1003 10 16 N/A
6:35 pm 18:35 Sunny 91 32.6 62 16.6 38 38 SE 8 13 29.61 1003 10 16 N/A
6:55 pm 18:55 Sunny 91 32.5 62 16.7 39 39 SE 8 13 29.61 1003 10 16 N/A
7:15 pm 19:15 Sunny 89 31.8 64 17.5 42 42 SE 7 11 29.62 1003 10 16 N/A
7:35 pm 19:35 Sunny 89 31.4 64 17.9 45 45 ESE 7 11 29.62 1003 10 16 N/A
7:55 pm 19:55 Sunny 87 30.4 65 18.3 48 48 ESE 9 15 29.62 1003 10 16 N/A
8:15 pm 20:15 Sunny 85 29.3 66 19 54 54 ESE 9 15 29.63 1003 10 16 N/A
8:35 pm 20:35 Clear 84 28.7 66 19 56 56 ESE 9 15 29.64 1004 10 16 N/A
8:55 pm 20:55 Clear 82 27.9 66 19 58 58 ESE 8 13 29.66 1004 10 16 N/A
9:15 pm 21:15 Clear 81 27.1 66 18.7 60 60 ESE 7 11 29.67 1005 10 16 N/A
9:35 pm 21:35 Clear 80 26.8 65 18.3 60 60 ESE 10 17 29.68 1005 10 16 N/A
9:55 pm 21:55 Clear 78 25.8 65 18.5 64 64 SE 7 11 29.68 1005 10 16 N/A
10:15 pm 22:15 Clear 77 25.2 64 18 64 64 SE 8 13 29.69 1005 10 16 N/A
10:35 pm 22:35 Clear 77 25.1 64 17.5 63 63 SE 8 13 29.68 1005 10 16 N/A
10:55 pm 22:55 Clear 76 24.5 63 17.2 64 64 SE 7 11 29.69 1006 10 16 N/A
11:15 pm 23:15 Clear 76 24.6 62 16.7 62 62 SE 6 9 29.69 1006 10 16 N/A
11:35 pm 23:35 Clear 76 24.5 62 16.6 62 62 SSE 8 13 29.70 1006 10 16 N/A
11:55 pm 23:55 Clear 75 23.8 62 16.8 65 65 SSE 10 17 29.70 1006 10 16 N/A

Powered by AerisWeather